Tracking 34085 objects as of 13-May-2026
HD Live streaming from Space Station
objects crossing your sky now

STARLINK-35854

Track STARLINK-35854 now!
10-day predictions
STARLINK-35854 is classified as:


NORAD ID: 68214
Int'l Code: 2026-053H
Perigee: 468.5 km
Apogee: 471.9 km
Inclination: 97.3 °
Period: 93.9 minutes
Semi major axis: 6841 km
RCS: Unknown
Launch date: March 17, 2026
Source: United States (US)
Launch site: AIR FORCE WESTERN TEST RANGE (AFWTR)
Your satellite tracking list
Your tracking list is empty




NASA's NSSDC Master Catalog

Two Line Element Set (TLE):
1 68214U 26053H   26132.19959322  .00013343  00000-0  40415-3 0  9992
2 68214  97.2850   7.8661 0002460  81.0181 279.1340 15.34277915  9934
Source of the keplerian elements: AFSPC